Weather History for Kununurra, WE

Change the Weather History Date:

Tuesday, September 17, 2013

  Actual Average Record
Temperature  
Mean Temperature 82 °F -  
Max Temperature 102 °F - - ()
Min Temperature 63 °F - - ()
Cooling Degree Days 18    
Growing Degree Days 32 (Base 50)    
Moisture  
Dew Point 45 °F    
Average Humidity 38    
Maximum Humidity 88    
Minimum Humidity 4    
Precipitation  
Precipitation 0.00 in - - ()
Sea Level Pressure  
Sea Level Pressure 29.78 in    
Wind  
Wind Speed 5 mph ()    
Max Wind Speed 10 mph    
Max Gust Speed -    
Visibility 6.5 miles    
Events      
T = Trace of Precipitation, MM = Missing Value Source: Averaged Metar Reports

Daily Weather History Graph

Daily Weather History Graph

Search for Another Location

Airport:

Trip Planner

Search our weather history database for the weather conditions in past years. The results will help you decide how hot, cold, wet, or windy it might be!

Date:

Astronomy

Sep. 17, 2013 Rise Set
Actual Time 5:19 AM AWST 5:20 PM AWST
Civil Twilight 4:57 AM AWST 5:42 PM AWST
Nautical Twilight 4:32 AM AWST 6:07 PM AWST
Astronomical Twilight 4:07 AM AWST 6:32 PM AWST
Moon 3:16 PM AWST (9/17) 3:10 AM AWST (9/17)
Length of Visible Light 12h 44m
Length of Day
12h 01m
Waxing Gibbous, 93% of the Moon is Illuminated
Sep 17
Waxing Gibbous
Sep 19
Full
Sep 27
Last Quarter
Oct 5
New
Oct 12
First Quarter

Hourly Weather History & Observations

Time (AWST) Temp. Heat Index Dew Point Humidity Pressure Visibility Wind Dir Wind Speed Gust Speed Precip Events Conditions
12:00 AM 72 °F - 62 °F 62% 29.80 in - West 2.3 mph - -  
12:00 AM 73.4 °F - 60.8 °F 65% 29.80 in 6.2 mi West 2.3 mph - N/A   Unknown
12:30 AM 69.8 °F - 60.8 °F 73% 29.80 in 6.2 mi West 3.5 mph - N/A   Unknown
1:00 AM 71.6 °F - 64.4 °F 78% 29.77 in 6.2 mi South 3.5 mph - N/A   Unknown
1:30 AM 68.0 °F - 60.8 °F 78% 29.77 in 6.2 mi East 5.8 mph - N/A   Unknown
2:00 AM 67 °F - 62 °F 77% 29.79 in - NE 6.9 mph - -  
2:00 AM 68.0 °F - 60.8 °F 78% 29.80 in 6.2 mi NE 6.9 mph - N/A   Unknown
2:30 AM 68.0 °F - 62.6 °F 83% 29.80 in 6.2 mi West 3.5 mph - N/A   Unknown
3:00 AM 68 °F - 61 °F 71% 29.80 in - East 3.5 mph - -  
3:00 AM 68.0 °F - 60.8 °F 78% 29.80 in 6.2 mi East 3.5 mph - N/A   Unknown
3:30 AM 66.2 °F - 60.8 °F 83% 29.80 in 6.2 mi SW 5.8 mph - N/A   Unknown
4:00 AM 68.0 °F - 60.8 °F 78% 29.80 in 6.2 mi SW 4.6 mph - N/A   Unknown
4:30 AM 64.4 °F - 60.8 °F 88% 29.80 in 6.2 mi North 3.5 mph - N/A   Unknown
5:00 AM 65 °F - 60 °F 78% 29.83 in - NW 3.5 mph - -  
5:00 AM 64.4 °F - 59.0 °F 83% 29.83 in 6.2 mi NW 3.5 mph - N/A   Unknown
5:30 AM 66.2 °F - 59.0 °F 78% 29.83 in 6.2 mi Calm Calm - N/A   Unknown
6:00 AM 74 °F - 61 °F 55% 29.85 in 12 mi South 6.9 mph - -   Partly Cloudy
6:00 AM 73.4 °F - 60.8 °F 65% 29.83 in 6.2 mi South 6.9 mph - N/A   Unknown
6:30 AM 75.2 °F - 62.6 °F 65% 29.86 in 6.2 mi Calm Calm - N/A   Unknown
7:00 AM 82.4 °F 81.4 °F 53.6 °F 37% 29.86 in 6.2 mi NE 1.2 mph - N/A   Unknown
7:30 AM 87.8 °F - 41.0 °F 19% 29.89 in 6.2 mi ESE 8.1 mph - N/A   Unknown
8:00 AM 90 °F - 34 °F 7% 29.89 in - ESE 8.1 mph - -  
8:00 AM 89.6 °F - 33.8 °F 14% 29.89 in 6.2 mi ESE 8.1 mph - N/A   Unknown
8:30 AM 91.4 °F - 24.8 °F 9% 29.89 in 6.2 mi ESE 8.1 mph - N/A   Unknown
9:00 AM 94 °F - 20 °F 4% 29.89 in 12 mi ESE 10.4 mph - -   Partly Cloudy
9:00 AM 95.0 °F - 19.4 °F 6% 29.89 in 6.2 mi ESE 10.4 mph - N/A   Unknown
9:30 AM 93.2 °F - 21.2 °F 7% 29.89 in 6.2 mi ESE 8.1 mph - N/A   Unknown
10:00 AM 95.0 °F - 19.4 °F 6% 29.86 in 6.2 mi ESE 8.1 mph - N/A   Unknown
10:30 AM 96.8 °F - 19.4 °F 6% 29.86 in 6.2 mi South 9.2 mph - N/A   Unknown
11:00 AM 97 °F - 19 °F 4% 29.83 in - SE 8.1 mph - -  
11:00 AM 96.8 °F - 19.4 °F 6% 29.83 in 6.2 mi SE 8.1 mph - N/A   Unknown
11:30 AM 96.8 °F - 21.2 °F 7% 29.80 in 6.2 mi SSE 9.2 mph - N/A   Unknown
12:00 PM 98.6 °F - 23.0 °F 7% 29.80 in 6.2 mi SSE 10.4 mph - N/A   Unknown
12:30 PM 100.4 °F - 24.8 °F 7% 29.77 in 6.2 mi SE 10.4 mph - N/A   Unknown
1:00 PM 100.4 °F - 24.8 °F 7% 29.74 in 6.2 mi South 9.2 mph - N/A   Unknown
1:30 PM 100.4 °F - 26.6 °F 7% 29.74 in 6.2 mi SE 5.8 mph - N/A   Unknown
2:00 PM 101 °F - 26 °F 4% 29.72 in - East 6.9 mph - -  
2:00 PM 100.4 °F - 24.8 °F 7% 29.71 in 6.2 mi East 6.9 mph - N/A   Unknown
2:30 PM 102.2 °F - 24.8 °F 6% 29.71 in 6.2 mi ESE 8.1 mph - N/A   Unknown
3:00 PM 101 °F - 27 °F 4% 29.70 in 12 mi SE 8.1 mph - -   Partly Cloudy
3:00 PM 100.4 °F - 26.6 °F 7% 29.68 in 6.2 mi SE 8.1 mph - N/A   Unknown
3:30 PM 102.2 °F - 26.6 °F 7% 29.68 in 6.2 mi East 8.1 mph - N/A   Unknown
4:00 PM 100.4 °F - 28.4 °F 8% 29.68 in 6.2 mi East 4.6 mph - N/A   Unknown
4:30 PM 98.6 °F - 30.2 °F 9% 29.68 in 6.2 mi East 6.9 mph - N/A   Unknown
5:00 PM 94 °F - 44 °F 10% 29.70 in - ENE 3.5 mph - -  
5:00 PM 95.0 °F - 44.6 °F 18% 29.68 in 6.2 mi ENE 3.5 mph - N/A   Unknown
5:30 PM 89.6 °F - 50.0 °F 26% 29.71 in 6.2 mi NNE 4.6 mph - N/A   Unknown
6:00 PM 83 °F - 57 °F 31% 29.71 in - NNE 3.5 mph - -  
6:00 PM 82.4 °F 82.0 °F 57.2 °F 42% 29.71 in 6.2 mi NNE 3.5 mph - N/A   Unknown
6:30 PM 80.6 °F 80.5 °F 55.4 °F 42% 29.71 in 6.2 mi Calm Calm - N/A   Unknown
7:00 PM 78.8 °F - 55.4 °F 44% 29.74 in 6.2 mi Calm Calm - N/A   Unknown
7:30 PM 77.0 °F - 55.4 °F 47% 29.74 in 6.2 mi NW 4.6 mph - N/A   Unknown
8:00 PM 74 °F - 50 °F 32% 29.75 in - NNW 5.8 mph - -  
8:00 PM 73.4 °F - 50.0 °F 44% 29.74 in 6.2 mi NNW 5.8 mph - N/A   Unknown
8:30 PM 75.2 °F - 50.0 °F 41% 29.74 in 6.2 mi North 4.6 mph - N/A   Unknown
9:00 PM 76 °F - 51 °F 30% 29.75 in - North 4.6 mph - -  
9:00 PM 75.2 °F - 50.0 °F 41% 29.74 in 6.2 mi North 4.6 mph - N/A   Unknown
9:30 PM 77.0 °F - 51.8 °F 41% 29.74 in 6.2 mi NNE 5.8 mph - N/A   Unknown
10:00 PM 75.2 °F - 51.8 °F 44% 29.74 in 6.2 mi West 1.2 mph - N/A   Unknown
10:30 PM 73.4 °F - 57.2 °F 57% 29.74 in 6.2 mi SSW 4.6 mph - N/A   Unknown
11:00 PM 73 °F - 56 °F 44% 29.75 in - ESE 1.2 mph - -  
11:00 PM 73.4 °F - 55.4 °F 53% 29.74 in 6.2 mi ESE 1.2 mph - N/A   Unknown
11:30 PM 71.6 °F - 55.4 °F 57% 29.74 in 6.2 mi Calm Calm - N/A   Unknown